Regional Weather Roundup
Issued by NWS Charleston, SC

Current Version | Previous Version | Graphics & Text | Print | Product List | Glossary On
Versions: 1 2 3 4 5 6 7 8 9 10 11 12 13 14 15 16 17 18 19 20 21 22 23 24 25 26 27 28 29 30 31 32 33 34 35 36 37 38 39 40 41 42 43 44 45 46 47 48 49 50
000 ASUS42 KCHS 300628 RWRCHS REGIONAL WEATHER ROUNDUP NATIONAL WEATHER SERVICE CHARLESTON SC 200 AM EDT MON MAY 30 2016 NOTE: "FAIR" INDICATES FEW OR NO CLOUDS BELOW 12,000 FEET WITH NO SIGNIFICANT WEATHER AND/OR OBSTRUCTIONS TO VISIBILITY. NOT ALL STATIONS ARE QUALITY CONTROLLED. USE DATA WITH CAUTION... ESPECIALLY DEWPOINT OBSERVATIONS. SCZ027-030-031-034>040-042>050-300700- ...SOUTHEAST SOUTH CAROLINA... CITY SKY/WX TMP DP RH WIND PRES REMARKS N CHARLESTON CLOUDY 71 68 90 W5 29.90F 6HR MIN TEMP: 71; 6HR MAX TEMP: 73; WATERFRONT PRK N/A 71 69 93 VRB2 29.89F MOUNT PLEASANT CLOUDY 70 70 100 CALM 29.90S FOG JOHNS ISLAND CLOUDY 72 70 94 CALM 29.91S PINOPOLIS N/A 73 70 88 NE7 29.85F MONCKS CORNER CLOUDY 68 64 88 CALM 29.90F SUMMERVILLE NOT AVBL BEAUFORT MCAS CLOUDY 69 67 93 W8 29.93F 6HR MIN TEMP: 69; 6HR MAX TEMP: 73; 6HR PCP: 0.07; BEAUFORT ARPT CLOUDY 70 68 94 W7 29.92F HILTON HEAD IS MOCLDY 70 68 94 VRB5 29.94F WALTERBORO HVY RAIN 70 70 100 CALM 29.93S ALLENDALE CLOUDY 70 66 88 NW6 29.95F ...SOUTHERN MIDLANDS AND PEE DEE... CITY SKY/WX TMP DP RH WIND PRES REMARKS GEORGETOWN DRIZZLE 70 68 94 SE7 29.91F KINGSTREE CLOUDY 70 68 94 CALM 29.93F ORANGEBURG LGT RAIN 69 67 93 N7 29.94F FOG 6HR MIN TEMP: 69; 6HR MAX TEMP: 73; 6HR PCP: 0.12; BARNWELL CLOUDY 72 72 100 NW5 29.97F AIKEN CLOUDY 68 61 77 NW7 30.01F MANNING CLOUDY 68 68 100 N5 29.93F COLUMBIA MOCLDY 71 64 78 NW8 29.96F 6HR MIN TEMP: 71; 6HR MAX TEMP: 77; SUMTER LGT RAIN 70 68 94 N6 29.93F 6HR MIN TEMP: 69; 6HR MAX TEMP: 71; 6HR PCP: 0.03; FLORENCE LGT RAIN 73 70 90 E5 29.95F FOG 6HR MIN TEMP: 72; 6HR MAX TEMP: 77; 6HR PCP: TRACE; MYRTLE BEACH MOCLDY 73 64 73 SE15 29.95F N MYRTLE BEACH CLOUDY 74 69 85 SE5 29.95S 6HR MIN TEMP: 74; 6HR MAX TEMP: 76; 6HR PCP: TRACE; $$ GAZ063-065-086>088-099>101-113>116-118-119-134>141-150-300700- ...SOUTHEAST GEORGIA... CITY SKY/WX TMP DP RH WIND PRES REMARKS SAVANNAH ARPT CLOUDY 70 63 78 W7 29.96F 6HR MIN TEMP: 68; 6HR MAX TEMP: 71; 6HR PCP: TRACE; HUNTER AAF CLOUDY 70 66 88 W3 29.94F 6HR MIN TEMP: 69; 6HR MAX TEMP: 70; 6HR PCP: TRACE; FORT STEWART CLOUDY 72 62 69 CALM 29.95F 6HR MIN TEMP: 72; 6HR MAX TEMP: 76; 6HR PCP: TRACE; STATESBORO CLOUDY 68 67 96 NW3 29.97S SYLVANIA CLOUDY 70 66 88 NW5 29.97F CLAXTON MOCLDY 68 66 94 CALM 29.98F ...CSRA...CENTRAL AND FAR SOUTHEAST GEORGIA... CITY SKY/WX TMP DP RH WIND PRES REMARKS THOMSON PTCLDY 64 64 100 CALM 30.05F AUGUSTA-BUSH LGT RAIN 67 64 90 NW8 29.98F 6HR MIN TEMP: 67; 6HR MAX TEMP: 76; 6HR PCP: 0.12; AUGUSTA-DANIEL LGT RAIN 70 62 76 N9 30.00F SWAINSBORO FAIR 68 63 83 CALM 30.00F VIDALIA CLOUDY 72 61 68 NW3 30.00S EASTMAN CLOUDY 69 69 100 CALM 30.03F HAZLEHURST FAIR 72 63 73 CALM 29.99F ALMA MOCLDY 68 65 90 CALM 30.00F 6HR MIN TEMP: 66; 6HR MAX TEMP: 82; WAYCROSS MOCLDY 69 66 90 CALM 30.00S JESUP FAIR 68 59 73 NE5 29.99S BAXLEY FAIR 68 64 88 CALM 29.99F BRUNSWICK CLOUDY 79 64 61 W3 29.98F SAINT SIMONS CLOUDY 75 62 64 W3 29.98F 6HR MIN TEMP: 74; 6HR MAX TEMP: 82; $$ SCZ027-028-034-036>038-045-046-048>050-GAZ119-141-300700- ...LAKE AND SUPPLEMENTAL COASTAL OBSERVATIONS... STATION/POSITION TIME TEMP WIND PRES WAVE SWELL AIR SEA DIR/SP/G HT/PER HT/PER/DIR (UTC) (F) (DEG/KT/KT) (MB) (FT/S) (FT/S/D) WINYAH BAY 0545 73 130/ 12 1012.0F LAKE MURRAY 0500 71 350/ 5/ 10 1015.6S ACE BASIN NERRS 0500 70 250/ 3 1014.0S FORT PULASKI 0600 71 75 280/ 11/ 12 1014.3F SAPELO ISLAND 0600 75 280/ 5 1015.0F $$ ANZ835-935-AMZ111-154-330-350-352-354-370-450-454-472-300700- ...C-MAN AND BUOY OBSERVATIONS... STATION/POSITION TIME TEMP WIND PRES WAVE SWELL AIR SEA DIR/SP/G HT/PER HT/PER/DIR (UTC) (F) (DEG/KT/KT) (MB) (FT/S) (FT/S/D) BUOY 41004 0550 73 77 200/ 17/ 21 1012.6S 6/ 7 3/12 BUOY 41008 0550 75 75 270/ 14/ 19 1014.6F 2/ 8 2/ 90/ 8 FOLLY BEACH CMAN 0600 70 260/ 4/ 5 1012.8F CAPERS NEARSHORE 0608 72 76 270/ 10/ 12 1011.8F FRIPP NEARSHORE 0608 71 75 290/ 14/ 17 1012.6F STATION/POSITION TIME TEMP WIND PRES WAVE SWELL AIR SEA DIR/SP/G HT/PER HT/PER/DIR (UTC) (F) (DEG/KT/KT) (MB) (FT/S) (FT/S/D) 5E ST. MARYS GA 0601 78 N/A 2/ 8 FRYING PAN BUOY 0600 78 78 170/ 16/ 19 1014.1F BUOY 41025 0550 77 81 160/ 16/ 19 1016.6F 6/ 8 3/140/ 8 CAPE LOOKOUT NC 0600 76 160/ 10/ 12 1015.7F BUOY 41002 0550 75 76 130/ 14/ 16 1017.2F 4/ 8 3/ 90/ 8 BUOY 41010 0520 78 79 150/ 6/ 8 1016.5F ST AUGUSTINE FL 0600 72 80 230/ 8/ 10 1016.2F $$

USA.gov is the U.S. government's official web portal to all federal, state and local government web resources and services.